Fresno, CA

2:36 AM PST on November 25, 2017 (GMT -0800)
Fresno Yosemite International

Weather History for KFAT - August, 2014

Change the Weather History Date:

Saturday, August 30, 2014

  Actual Average Record
Temperature  
Mean Temperature 86 °F 80 °F  
Max Temperature 101 °F 95 °F 109 °F (1988)
Min Temperature 71 °F 65 °F 49 °F (1966)
Degree Days  
Heating Degree Days 0    
Month to date heating degree days 0  
Since 1 June heating degree days 0  
Since 1 July heating degree days 0  
Cooling Degree Days 21    
Month to date cooling degree days 588  
Year to date cooling degree days 2203  
Since 1 June cooling degree days 1760  
Growing Degree Days 36 (Base 50)    
Moisture  
Dew Point 47 °F    
Average Humidity 34    
Maximum Humidity 57    
Minimum Humidity 10    
Precipitation  
Precipitation 0.00 in 0.00 in 0.15 in (1896)
Month to date precipitation T 0.01  
Year to date precipitation 4.09 7.86  
Since 1 July precipitation 0.01  
Snow  
Snow 0.00 in - - ()
Month to date snowfall 0.0  
Since 1 June snowfall 0.0  
Since 1 July snowfall 0.0  
Snow Depth 0.00 in    
Sea Level Pressure  
Sea Level Pressure 29.82 in    
Wind  
Wind Speed 8 mph (NW)    
Max Wind Speed 17 mph    
Max Gust Speed 22 mph    
Visibility 10 miles    
Events      
T = Trace of Precipitation, MM = Missing Value Source: NWS Daily Summary

Daily Weather History Graph

Daily Weather History Graph

Search for Another Location

Airport or City:

Trip Planner

Search our weather history database for the weather conditions in past years. The results will help you decide how hot, cold, wet, or windy it might be!

Date:

Astronomy

Aug. 30, 2014 Rise Set
Actual Time 6:28 AM PDT 7:29 PM PDT
Civil Twilight 6:01 AM PDT 7:56 PM PDT
Nautical Twilight 5:30 AM PDT 8:27 PM PDT
Astronomical Twilight 4:57 AM PDT 9:00 PM PDT
Moon 11:12 AM PDT (8/30) 10:16 PM PDT (8/30)
Length of Visible Light 13h 54m
Length of Day
13h 01m
Waxing Crescent, 24% of the Moon is Illuminated
Aug 30
Waxing Crescent
Sep 2
First Quarter
Sep 8
Full
Sep 15
Last Quarter
Sep 23
New

Hourly Weather History & Observations

Time (PDT) Temp. Heat Index Dew Point Humidity Pressure Visibility Wind Dir Wind Speed Gust Speed Precip Events Conditions
12:53 AM 78.8 °F - 57.2 °F 47% 29.85 in 10.0 mi WNW 9.2 mph - N/A   Scattered Clouds
1:53 AM 78.1 °F - 55.9 °F 46% 29.83 in 10.0 mi NW 8.1 mph - N/A   Mostly Cloudy
2:53 AM 75.9 °F - 55.9 °F 50% 29.83 in 10.0 mi NNW 5.8 mph - N/A   Mostly Cloudy
3:53 AM 73.9 °F - 55.9 °F 53% 29.83 in 10.0 mi NW 5.8 mph - N/A   Mostly Cloudy
4:53 AM 73.0 °F - 55.9 °F 55% 29.83 in 10.0 mi NW 5.8 mph - N/A   Mostly Cloudy
5:53 AM 72.0 °F - 55.9 °F 57% 29.84 in 10.0 mi NW 5.8 mph - N/A   Mostly Cloudy
6:53 AM 71.1 °F - 55.0 °F 57% 29.86 in 10.0 mi NW 3.5 mph - N/A   Mostly Cloudy
7:53 AM 73.9 °F - 55.9 °F 53% 29.86 in 10.0 mi Calm Calm - N/A   Mostly Cloudy
8:53 AM 78.1 °F - 54.0 °F 43% 29.86 in 10.0 mi Calm Calm - N/A   Mostly Cloudy
9:53 AM 81.0 °F 80.4 °F 53.1 °F 38% 29.87 in 10.0 mi Calm Calm - N/A   Mostly Cloudy
10:53 AM 89.1 °F - 45.0 °F 22% 29.87 in 10.0 mi NW 8.1 mph - N/A   Mostly Cloudy
11:53 AM 91.0 °F - 45.0 °F 20% 29.86 in 10.0 mi Variable 4.6 mph - N/A   Mostly Cloudy
12:53 PM 95.0 °F - 46.0 °F 19% 29.84 in 10.0 mi Variable 5.8 mph - N/A   Mostly Cloudy
1:53 PM 95.0 °F - 37.9 °F 14% 29.83 in 10.0 mi WNW 8.1 mph - N/A   Mostly Cloudy
2:53 PM 98.1 °F - 34.0 °F 11% 29.81 in 10.0 mi WNW 6.9 mph - N/A   Mostly Cloudy
3:53 PM 100.0 °F - 39.0 °F 12% 29.78 in 10.0 mi NNW 10.4 mph - N/A   Mostly Cloudy
4:53 PM 100.9 °F - 37.9 °F 11% 29.77 in 10.0 mi WNW 10.4 mph - N/A   Scattered Clouds
5:53 PM 100.0 °F - 39.0 °F 12% 29.77 in 10.0 mi NW 15.0 mph - N/A   Scattered Clouds
6:53 PM 97.0 °F - 42.1 °F 15% 29.76 in 10.0 mi NW 13.8 mph - N/A   Scattered Clouds
7:53 PM 91.4 °F - 42.8 °F 18% 29.78 in 10.0 mi NW 10.4 mph - N/A   Partly Cloudy
8:53 PM 88.0 °F - 43.0 °F 21% 29.79 in 10.0 mi NW 9.2 mph - N/A   Clear
9:53 PM 86.0 °F - 42.1 °F 21% 29.80 in 10.0 mi NW 10.4 mph - N/A   Clear
10:53 PM 82.0 °F - 44.1 °F 26% 29.80 in 10.0 mi WNW 12.7 mph - N/A   Clear
11:53 PM 81.0 °F - 44.1 °F 27% 29.81 in 10.0 mi WNW 13.8 mph - N/A   Clear